Back to catalog

COSMOS 2251 DEB

AliveLEO
NORAD 39591·DEBRIS·🇷🇺 Russia

Launched Jun 16, 1993 from Plesetsk Cosmodrome

Loading…

Next Passes (next 24 hours)

TLE

FreshSource: Space-Track

Epoch: Sep 14, 2026, 05:58 UTC

1 39591U 93036BUW 26257.24915600  .00000601  00000-0  18880-3 0  9992
2 39591  74.0168  95.4100 0029474 144.9725 336.9731 14.42405019657484

Track COSMOS 2251 DEB in real time with AllMySat

Download on the App Store